This is the latest recevied weather packets stored in our database for station/object AD8AK. If no packets are shown the sender has not sent any weather packets the latest 1 day(s).
| Time | Temp. | Humidity | Pressure | Rain* | Wind** | Luminosity | Snow |
|---|---|---|---|---|---|---|---|
| 1778037935 | 8.33° C | 96% | 1008.8 hPa | 0 mm | 0 m/s | - | - |
| 1778037632 | 8.33° C | 96% | 1009.1 hPa | 1.78 mm | 0 m/s | - | - |
| 1778037330 | 8.33° C | 95% | 1008.9 hPa | 1.78 mm | 0 m/s | - | - |
| 1778037027 | 8.33° C | 95% | 1009.2 hPa | 0 mm | 0 m/s | - | - |
| 1778036725 | 8.33° C | 96% | 1008.9 hPa | 1.27 mm | 0 m/s | - | - |
| 1778036422 | 8.33° C | 95% | 1009.2 hPa | 1.27 mm | 0 m/s | - | - |
| 1778036119 | 8.33° C | 95% | 1009.6 hPa | 1.78 mm | 0 m/s | - | - |
| 1778035815 | 8.33° C | 95% | 1009.4 hPa | 3.56 mm | 0 m/s | - | - |
| 1778035512 | 8.33° C | 95% | 1009.4 hPa | 1.78 mm | 0 m/s | - | - |
| 1778035208 | 8.33° C | 95% | 1009.5 hPa | 1.27 mm | 0 m/s | - | - |
| 1778034904 | 8.33° C | 95% | 1009.3 hPa | 1.27 mm | 0 m/s | - | - |
| 1778034601 | 8.33° C | 95% | 1009.4 hPa | 1.78 mm | 0 m/s | - | - |
| 1778034299 | 8.33° C | 95% | 1009.5 hPa | 3.05 mm | 0 m/s | - | - |
| 1778033996 | 8.33° C | 95% | 1009.5 hPa | 1.27 mm | 0 m/s | - | - |
| 1778033694 | 8.33° C | 95% | 1009.5 hPa | 1.78 mm | 0 m/s | - | - |
| 1778033391 | 8.33° C | 95% | 1009.4 hPa | 3.05 mm | 0 m/s | - | - |
| 1778033089 | 8.89° C | 95% | 1009.5 hPa | 1.27 mm | 0 m/s | - | - |
| 1778032785 | 8.89° C | 95% | 1009.2 hPa | 1.78 mm | 0 m/s | - | - |
| 1778032483 | 8.89° C | 95% | 1009.3 hPa | 1.78 mm | 0 m/s | - | - |
| 1778032180 | 8.33° C | 95% | 1009.5 hPa | 0 mm | 0 m/s | - | - |
| 1778031877 | 8.89° C | 95% | 1009.4 hPa | 1.27 mm | 0 m/s | - | - |
| 1778031573 | 8.89° C | 95% | 1009.6 hPa | 0 mm | 0 m/s | - | - |
| 1778031271 | 8.89° C | 95% | 1009.3 hPa | 0 mm | 0 m/s | - | - |
| 1778030967 | 8.89° C | 95% | 1009.1 hPa | 1.78 mm | 0 m/s | - | - |
| 1778030664 | 8.89° C | 95% | 1008.9 hPa | 1.27 mm | 0 m/s | - | - |
* Rain latest hour (hover to see other rain measurements)
** Current wind speed in m/s (hover to see current wind gust speed)